Regional Weather Roundup
Issued by NWS

Home | Current Version | Previous Version | Text Only | Print | Product List | Glossary On
Versions: 1 2 3 4 5 6 7 8 9 10 11 12 13 14 15 16 17 18 19 20 21 22 23 24 25 26 27 28 29 30 31 32 33 34 35 36 37 38 39 40 41 42 43 44 45 46 47 48 49 50
000
ASUS45 KTFX 271219
RWRMT
MONTANA HOURLY WEATHER ROUNDUP
NATIONAL WEATHER SERVICE GREAT FALLS MT
519 AM MST SAT DEC 27 2014

NOTE: "FAIR" INDICATES FEW OR NO CLOUDS BELOW 12000 FEET WITH NO
SIGNIFICANT WEATHER AND/OR OBSTRUCTIONS TO VISIBILITY.

* THESE STATIONS ARE NOT UNDER NWS QUALITY CONTROL. THEY DO NOT
   REPORT WEATHER SUCH AS PRECIPITATION OR FOG.

MTZ001>007-043-271300-
WEST OF THE DIVIDE
CITY           SKY/WX    TMP DP  RH WIND       PRES   REMARKS
KALISPELL      CLOUDY    21  19  92 CALM      30.15F
MISSOULA       CLOUDY    25  19  78 E6        30.21F WCI  18
BUTTE          CLOUDY     0  -6  75 CALM      30.11R
MULLAN PASS    LGT SNOW  19  16  88 VRB5      30.03F VSB 3/4  WCI  12
* ESSEX        N/A       21  19  92 N/A        N/A
* HAMILTON APT MOCLDY    25  16  69 S10       30.20F WCI  15
* LIBBY APT    CLOUDY    19  18  96 CALM      30.19F
* LINCOLN      N/A       21  14  74 SW4G13     N/A
* LOOKOUT PASS N/A       22  20  92 S3G8       N/A
* POLSON       N/A       23  22  96 N/A        N/A
* RONAN APT    CLOUDY    27  21  78 N/A        N/A
* SEELEY LAKE  N/A       11   8  88 N/A        N/A
* THOMP F APT  CLOUDY     3  -2  79 NE4        N/A
* YAAK HILL    N/A       26  23  88 N2         N/A
$$

MTZ008-052>055-271300-
SOUTHWEST MONTANA
CITY           SKY/WX    TMP DP  RH WIND       PRES   REMARKS
BOZEMAN        FOG        1   0  95 SW3       30.14F VSB 1 1/2
DILLON         MOCLDY    16   7  67 S18G24    30.11F
* W YELLOWSTON PTCLDY    -5 -11  75 N/A        N/A
* THREE FORKS  MOCLDY     3   3 100 N/A        N/A
* TWIN BRIDGES MOCLDY     7  -2  66 E5         N/A   WCI  -2
* BOULDER HILL N/A       16   4  59 SW12       N/A   WCI   3
* MONIDA PASS  N/A        0  -3  87 SE9        N/A   WCI -15
* RAYNOLDS PAS N/A        3 -11  51 SE12       N/A   WCI -14
* WHITEHALL    N/A       17   8  68 W10G17     N/A   WCI   5
* WISE RIVER   N/A        5   0  80 SW2        N/A
$$

MTZ009>010-012-014-046-048-049-054-271300-
EAST SLOPES AND CENTRAL MONTANA
CITY           SKY/WX    TMP DP  RH WIND       PRES   REMARKS
CUT BANK       CLOUDY    25  16  69 W20       29.96F WCI  11
GREAT FALLS    CLOUDY    21  16  81 SW15      30.02R WCI   7
HELENA         CLOUDY    27  12  53 W14G23    30.12R WCI  16
MALMSTROM AFB  MOCLDY    21  18  88 SW16      30.05S WCI   7
* CONRAD       CLOUDY     5   1  83 CALM       N/A
* DEARBORN     N/A       26  14  60 S2G9       N/A
* EAST GLACIER N/A       21  14  74 W23        N/A   WCI   5
* MONARCH      N/A       18   6  59 SW22G27    N/A   WCI   1
* PENDROY      N/A       22  10  60 NW11G16    N/A   WCI  11
* SWEET GRASS  N/A       21  12  68 SW12       N/A   WCI   9
* WHITE SULPH  N/A       16   8  71 S10G17     N/A   WCI   4
$$

MTZ011-013-016-021-035-040-045-047-050-051-271300-
NORTH CENTRAL MONTANA
CITY           SKY/WX    TMP DP  RH WIND       PRES   REMARKS
HAVRE          MOCLDY    18  12  77 W12       30.03S WCI   5
LEWISTOWN      CLOUDY    18   9  68 VRB5      29.99S WCI  11
* N BAR RANCH  FAIR      10   3  73 W7        29.99S WCI  -1
* CHINOOK      CLOUDY    14  10  84 SW3       30.04F
* MALTA APT    CLOUDY    12   7  80 SW5        N/A   WCI   4
* CHESTER      N/A        8   4  84 N/A        N/A
* DENTON       N/A       10   4  76 S7         N/A   WCI  -1
* JUDITH GAP   N/A       13   6  73 VRB7       N/A   WCI   3
* LOMA         N/A       12   8  84 SW1        N/A
$$

MTZ017>020-022>027-061-062-271300-
NORTHEAST MONTANA
CITY           SKY/WX    TMP DP  RH WIND       PRES   REMARKS
GLASGOW        MOCLDY    14  10  84 CALM      30.02F
GLENDIVE       PTCLDY    14  10  84 S7        30.05F WCI   4
JORDAN         PTCLDY    16  10  77 W9        30.03F WCI   5
SIDNEY         CLEAR     10   7  88 S6        30.07F
WOLF POINT     PTCLDY     7   1  76 NW3       30.06S
* BEAVER HILL  N/A       13  11  92 S12        N/A   WCI  -1
* CIRCLE       N/A       15  12  88 SW3        N/A
* LINDSAY DVD  N/A       17  13  84 SW13       N/A   WCI   3
* NAVAJO       N/A       12   9  88 SW15       N/A   WCI  -4
* PLENTYWOOD A PTCLDY     7   3  83 E5        30.01F WCI  -2
* POPLAR APT   CLEAR      9   7  91 N/A       30.05F VSB 3/4
* SACO         N/A       16  12  84 S6         N/A   WCI   7
* SCOBEY APT   MOCLDY    12   5  73 S5         N/A   WCI   4
$$

MTZ028>042-056>058-271300-
SOUTHCENTRAL AND SOUTHEAST MONTANA
CITY           SKY/WX    TMP DP  RH WIND       PRES   REMARKS
BAKER          FAIR      16  10  77 SW9       30.06F WCI   5
BILLINGS       CLEAR     16  10  77 SW12      30.05S WCI   3
LIVINGSTON     PTCLDY    19   3  49 SW32G47   30.05S WCI  -1
MILES CITY     CLEAR     14  10  84 S6        30.07F WCI   5
* BIG TIMBER A PTCLDY    18   9  68 SW33G41   29.98F VSB 3    WCI  -2
* FORSYTH APT  CLEAR     16  12  84 CALM      30.07F
* LAUREL APT   CLEAR     16   9  74 SW7        N/A   WCI   6
* ROUNDUP APT  PTCLDY     7   0  73 N/A        N/A
* ALZADA       N/A       19  15  84 SW9        N/A   WCI   8
* HYSHAM       N/A        9   6  87 W6         N/A   WCI  -1
* REED POINT   N/A       -3  -6  87 E1         N/A
* ROSCOE HILL  N/A       11  -4  50 SW2        N/A
$$

REGIONAL REPORTS...DAKOTAS
CITY           SKY/WX    TMP DP  RH WIND       PRES   REMARKS
WILLISTON      PTCLDY    10   7  88 S3        30.05F
DICKINSON      CLEAR     18  10  71 W10       30.02F WCI   6
BEACH          CLEAR     14  14 100 SW10      30.05F WCI   1
CROSBY         CLOUDY    14  12  92 SW12      30.02F
TIOGA          MOCLDY    10  10 100 W8        30.04S WCI  -2
WATFORD CITY   CLEAR     12  10  92 SW9       30.04S
BISMARCK       CLOUDY     7   3  83 E3        30.10F
GRAND FORKS    CLOUDY     3  -2  79 S5        30.14F WCI  -7
FARGO          CLEAR      1  -2  87 CALM      30.16F
BUFFALO SD     PTCLDY    23  18  81 W12       30.00F WCI  11
RAPID CITY     CLOUDY    10   7  88 N3        30.10S
$$

REGIONAL REPORTS...WYOMING/IDAHO/WASHINGTON
CITY           SKY/WX    TMP DP  RH WIND       PRES   REMARKS
GILLETTE       PTCLDY     9   5  84 S10       30.06F WCI  -5
SHERIDAN       PTCLDY     3  -2  79 S7        30.05F WCI  -9
CODY           PTCLDY    21   3  45 W12G22    30.00F WCI   9
YELLOWSTONE LA MOCLDY    -8 -11  86 CALM      30.07S
SALMON         CLOUDY    19   9  65 S5        30.24S WCI  12
MULLAN PASS    LGT SNOW  19  16  88 VRB5      30.03S VSB 3/4  WCI  12
SAND POINT     CLOUDY    30  30 100 SW3       30.22S
SPOKANE        CLOUDY    30  27  89 S5        30.19S WCI  25
$$

REGIONAL REPORTS...ALBERTA
CITY           SKY/WX    TMP DP  RH WIND       PRES   REMARKS
CALGARY        MOCLDY    19   9  65 SE6       29.91F WCI  11
LETHBRIDGE     FAIR      27  18  69 W22G30    29.96F WCI  13
MEDICINE HAT   CLEAR     16  14  92 S9        30.00F WCI   5
EDMONTON       MOCLDY    18  12  77 W7        29.91F WCI   9
WATERTON GATE  N/A       25  16  69 SW20G28    N/A   WCI  11
CARDSTON       N/A       27  18  69 W13G20     N/A   WCI  16
MILK RIVER     N/A       12   9  88 W3         N/A
$$

REGIONAL REPORTS...SASKATCHEWAN
CITY           SKY/WX    TMP DP  RH WIND       PRES   REMARKS
SWIFT CURRENT  CLOUDY    16  14  92 W12       29.94S WCI   3
REGINA         LGT SNOW  12  10  92 S5        29.96F WCI   4
VAL MARIE      N/A       16  14  92 S7         N/A   WCI   6
ASSINIBOIA     N/A       16  12  84 W13        N/A   WCI   2

$$



USA.gov is the U.S. government's official web portal to all federal, state and local government web resources and services.